Weather History for K2D5 - May, 2014

Change the Weather History Date:

Monday, May 5, 2014

  Actual Average (KABR) Record (KABR)
Temperature  
Mean Temperature 48 °F 53 °F  
Max Temperature 59 °F 66 °F 92 °F (2000)
Min Temperature 37 °F 40 °F 24 °F (1944)
Degree Days  
Heating Degree Days 17 12  
Month to date heating degree days 65  
Since 1 July heating degree days 8236  
Cooling Degree Days 0 0  
Month to date cooling degree days 0  
Year to date cooling degree days 2  
Moisture  
Dew Point 38 °F    
Average Humidity 73    
Maximum Humidity 100    
Minimum Humidity 45    
Precipitation  
Precipitation 0.00 in 0.10 in 7.62 in (2007)
Month to date precipitation 0.51  
Year to date precipitation 4.54  
Sea Level Pressure  
Sea Level Pressure 29.95 in    
Wind  
Wind Speed 12 mph (ENE)    
Max Wind Speed 16 mph    
Max Gust Speed 21 mph    
Visibility 10 miles    
Events      
T = Trace of Precipitation, MM = Missing Value Source: NWS Daily Summary

Daily Weather History Graph

Daily Weather History Graph

Search for Another Location

Airport or City:

Trip Planner

Search our weather history database for the weather conditions in past years. The results will help you decide how hot, cold, wet, or windy it might be!

Date:

Astronomy

May. 05, 2014 Rise Set
Actual Time 6:12 AM CDT 8:46 PM CDT
Civil Twilight 5:39 AM CDT 9:19 PM CDT
Nautical Twilight 4:56 AM CDT 10:02 PM CDT
Astronomical Twilight 4:07 AM CDT 10:51 PM CDT
Moon 11:35 AM CDT (5/5) 1:30 AM CDT (5/5)
Length of Visible Light 15h 40m
Length of Day
14h 33m
Waxing Crescent, 37% of the Moon is Illuminated
May 5
Waxing Crescent
May 6
First Quarter
May 14
Full
May 21
Last Quarter
May 28
New

Hourly Weather History & Observations

Time (CDT) Temp. Windchill Dew Point Humidity Pressure Visibility Wind Dir Wind Speed Gust Speed Precip Events Conditions
12:15 AM 41.0 °F 34.7 °F 35.6 °F 81% 30.00 in 10.0 mi NNE 10.4 mph - N/A   Overcast
12:35 AM 41.0 °F 33.9 °F 35.6 °F 81% 30.00 in 10.0 mi NE 12.7 mph - N/A   Overcast
12:55 AM 41.0 °F 33.5 °F 33.8 °F 76% 29.99 in 10.0 mi NE 13.8 mph - N/A   Overcast
1:15 AM 41.0 °F 34.3 °F 33.8 °F 76% 29.99 in 10.0 mi NE 11.5 mph - N/A   Overcast
1:35 AM 41.0 °F 33.5 °F 33.8 °F 76% 29.98 in 10.0 mi NE 13.8 mph - N/A   Overcast
1:55 AM 41.0 °F 33.5 °F 35.6 °F 81% 29.99 in 10.0 mi NE 13.8 mph - N/A   Overcast
2:15 AM 39.2 °F 31.2 °F 35.6 °F 87% 30.00 in 10.0 mi NE 13.8 mph - N/A   Overcast
2:35 AM 39.2 °F 30.8 °F 35.6 °F 87% 29.99 in 10.0 mi NE 15.0 mph - N/A   Overcast
2:55 AM 39.2 °F 30.5 °F 35.6 °F 87% 29.98 in 10.0 mi ENE 16.1 mph - N/A   Overcast
3:15 AM 39.2 °F 31.6 °F 35.6 °F 87% 29.98 in 10.0 mi NE 12.7 mph - N/A   Overcast
3:35 AM 39.2 °F 31.6 °F 35.6 °F 87% 29.98 in 10.0 mi ENE 12.7 mph - N/A   Overcast
3:55 AM 39.2 °F 31.6 °F 35.6 °F 87% 29.97 in 10.0 mi ENE 12.7 mph - N/A   Overcast
4:15 AM 39.2 °F 32.0 °F 35.6 °F 87% 29.98 in 10.0 mi NE 11.5 mph - N/A   Overcast
4:35 AM 39.2 °F 32.0 °F 35.6 °F 87% 29.98 in 10.0 mi NE 11.5 mph - N/A   Overcast
4:55 AM 39.2 °F 32.0 °F 37.4 °F 93% 29.99 in 10.0 mi NE 11.5 mph - N/A   Overcast
5:15 AM 39.2 °F 32.5 °F 37.4 °F 93% 30.00 in 10.0 mi NNE 10.4 mph - N/A   Overcast
5:35 AM 39.2 °F 33.0 °F 37.4 °F 93% 30.00 in 10.0 mi NE 9.2 mph - N/A   Overcast
5:55 AM 37.4 °F 29.3 °F 37.4 °F 100% 29.98 in 10.0 mi NE 12.7 mph - N/A   Overcast
6:15 AM 37.4 °F 29.8 °F 37.4 °F 100% 29.98 in 10.0 mi NE 11.5 mph - N/A   Overcast
6:35 AM 37.4 °F 30.8 °F 37.4 °F 100% 29.98 in 10.0 mi NE 9.2 mph - N/A   Overcast
6:55 AM 39.2 °F 32.0 °F 37.4 °F 93% 29.99 in 10.0 mi NE 11.5 mph - N/A   Overcast
7:15 AM 39.2 °F 33.0 °F 39.2 °F 100% 30.00 in 10.0 mi NE 9.2 mph - N/A   Overcast
7:35 AM 39.2 °F 33.6 °F 39.2 °F 100% 30.00 in 10.0 mi NE 8.1 mph - N/A   Overcast
7:55 AM 39.2 °F 33.6 °F 39.2 °F 100% 30.01 in 10.0 mi NE 8.1 mph - N/A   Overcast
8:15 AM 39.2 °F 32.5 °F 39.2 °F 100% 30.02 in 10.0 mi NE 10.4 mph - N/A   Overcast
8:35 AM 39.2 °F 32.0 °F 39.2 °F 100% 30.02 in 10.0 mi NE 11.5 mph - N/A   Overcast
8:55 AM 41.0 °F 33.9 °F 39.2 °F 93% 30.00 in 10.0 mi ENE 12.7 mph - N/A   Overcast
9:15 AM 41.0 °F 35.2 °F 39.2 °F 93% 30.01 in 10.0 mi NE 9.2 mph - N/A   Overcast
9:35 AM 42.8 °F 36.2 °F 39.2 °F 87% 30.01 in 10.0 mi NE 12.7 mph - N/A   Overcast
9:55 AM 44.6 °F 38.4 °F 39.2 °F 81% 30.00 in 10.0 mi NE 12.7 mph - N/A   Overcast
10:15 AM 44.6 °F 39.2 °F 39.2 °F 81% 30.00 in 10.0 mi ENE 10.4 mph - N/A   Overcast
10:35 AM 46.4 °F 41.5 °F 39.2 °F 76% 29.99 in 10.0 mi ENE 10.4 mph - N/A   Overcast
10:55 AM 48.2 °F - 39.2 °F 71% 30.00 in 10.0 mi ENE 11.5 mph - N/A   Mostly Cloudy
11:15 AM 50.0 °F - 39.2 °F 66% 30.00 in 10.0 mi ENE 10.4 mph - N/A   Mostly Cloudy
11:35 AM 50.0 °F - 37.4 °F 62% 30.00 in 10.0 mi ENE 10.4 mph - N/A   Mostly Cloudy
11:55 AM 51.8 °F - 37.4 °F 58% 29.99 in 10.0 mi East 12.7 mph 18.4 mph N/A   Mostly Cloudy
12:15 PM 53.6 °F - 35.6 °F 51% 29.99 in 10.0 mi ENE 11.5 mph 16.1 mph N/A   Partly Cloudy
12:35 PM 53.6 °F - 35.6 °F 51% 30.00 in 10.0 mi NE 8.1 mph - N/A   Partly Cloudy
1:55 PM 55.4 °F - 35.6 °F 47% 29.96 in 10.0 mi East 12.7 mph 16.1 mph N/A   Clear
2:15 PM 55.4 °F - 35.6 °F 47% 29.95 in 10.0 mi ESE 12.7 mph 20.7 mph N/A   Clear
2:35 PM 55.4 °F - 35.6 °F 47% 29.95 in 10.0 mi East 10.4 mph 18.4 mph N/A   Clear
2:55 PM 57.2 °F - 37.4 °F 48% 29.94 in 10.0 mi ESE 9.2 mph - N/A   Clear
3:15 PM 57.2 °F - 37.4 °F 48% 29.93 in 10.0 mi ESE 12.7 mph 16.1 mph N/A   Clear
3:55 PM 59.0 °F - 37.4 °F 45% 29.92 in 10.0 mi East 9.2 mph - N/A   Clear
4:15 PM 59.0 °F - 37.4 °F 45% 29.92 in 10.0 mi East 10.4 mph 16.1 mph N/A   Clear
4:35 PM 59.0 °F - 39.2 °F 48% 29.91 in 10.0 mi East 11.5 mph - N/A   Clear
4:55 PM 59.0 °F - 37.4 °F 45% 29.91 in 10.0 mi East 11.5 mph 16.1 mph N/A   Clear
5:15 PM 59.0 °F - 39.2 °F 48% 29.90 in 10.0 mi East 11.5 mph 17.3 mph N/A   Clear
5:35 PM 59.0 °F - 39.2 °F 48% 29.90 in 10.0 mi ESE 10.4 mph 17.3 mph N/A   Clear
5:55 PM 59.0 °F - 39.2 °F 48% 29.89 in 10.0 mi ESE 9.2 mph - N/A   Clear
6:15 PM 59.0 °F - 39.2 °F 48% 29.88 in 10.0 mi East 13.8 mph - N/A   Clear
6:35 PM 59.0 °F - 39.2 °F 48% 29.88 in 10.0 mi East 12.7 mph - N/A   Clear
6:55 PM 59.0 °F - 39.2 °F 48% 29.88 in 10.0 mi East 13.8 mph - N/A   Clear
7:15 PM 57.2 °F - 39.2 °F 51% 29.88 in 10.0 mi East 12.7 mph - N/A   Clear
7:35 PM 57.2 °F - 39.2 °F 51% 29.89 in 10.0 mi East 10.4 mph - N/A   Clear
7:55 PM 55.4 °F - 41.0 °F 58% 29.89 in 10.0 mi East 9.2 mph - N/A   Clear
8:15 PM 55.4 °F - 41.0 °F 58% 29.89 in 10.0 mi East 9.2 mph - N/A   Clear
8:35 PM 53.6 °F - 41.0 °F 62% 29.89 in 10.0 mi ENE 10.4 mph - N/A   Clear
8:55 PM 51.8 °F - 42.8 °F 71% 29.90 in 10.0 mi ENE 10.4 mph - N/A   Clear
9:15 PM 51.8 °F - 44.6 °F 76% 29.90 in 10.0 mi ENE 10.4 mph - N/A   Clear
9:35 PM 50.0 °F - 42.8 °F 76% 29.91 in 10.0 mi ENE 10.4 mph - N/A   Clear
9:55 PM 50.0 °F - 42.8 °F 76% 29.91 in 10.0 mi ENE 10.4 mph - N/A   Clear
10:15 PM 50.0 °F - 42.8 °F 76% 29.91 in 10.0 mi ENE 10.4 mph - N/A   Clear
10:35 PM 50.0 °F - 42.8 °F 76% 29.91 in 10.0 mi ENE 11.5 mph - N/A   Partly Cloudy
10:55 PM 50.0 °F - 41.0 °F 71% 29.89 in 10.0 mi ENE 13.8 mph - N/A   Clear
11:15 PM 50.0 °F - 41.0 °F 71% 29.89 in 10.0 mi ENE 12.7 mph - N/A   Clear
11:35 PM 50.0 °F - 41.0 °F 71% 29.89 in 10.0 mi ENE 12.7 mph - N/A   Clear
11:55 PM 50.0 °F - 41.0 °F 71% 29.89 in 10.0 mi ENE 11.5 mph - N/A   Clear